Lahr, Germany

12:27 PM CEST on August 29, 2016 (GMT +0200)
Lahr

Weather History for EDTL - October, 2013

Change the Weather History Date:

Thursday, October 17, 2013

  Actual Average (LFST) Record (LFST)
Temperature  
Mean Temperature 56 °F -  
Max Temperature 63 °F 57 °F 71 °F (1998)
Min Temperature 48 °F 42 °F 32 °F (1999)
Degree Days  
Heating Degree Days 10    
Growing Degree Days 6 (Base 50)    
Moisture  
Dew Point 51 °F    
Average Humidity 79    
Maximum Humidity 100    
Minimum Humidity 51    
Precipitation  
Precipitation 0.00 in - - ()
Sea Level Pressure  
Sea Level Pressure 30.10 in    
Wind  
Wind Speed 7 mph ()    
Max Wind Speed 14 mph    
Max Gust Speed -    
Visibility 6.8 miles    
Events Rain    
Averages and records for this station are not official NWS values.
T = Trace of Precipitation, MM = Missing Value Source: Averaged Metar Reports

Daily Weather History Graph

Daily Weather History Graph

Search for Another Location

Airport or City:

Trip Planner

Search our weather history database for the weather conditions in past years. The results will help you decide how hot, cold, wet, or windy it might be!

Date:

Astronomy

Oct. 17, 2013 Rise Set
Actual Time 7:51 AM CEST 6:35 PM CEST
Civil Twilight 7:19 AM CEST 7:07 PM CEST
Nautical Twilight 6:43 AM CEST 7:43 PM CEST
Astronomical Twilight 6:07 AM CEST 8:19 PM CEST
Moon 5:44 PM CEST (10/17) 6:00 AM CEST (10/17)
Length of Visible Light 11h 47m
Length of Day
10h 44m
Waxing Gibbous, 97% of the Moon is Illuminated
Oct 17
Waxing Gibbous
Oct 19
Full
Oct 27
Last Quarter
Nov 3
New
Nov 10
First Quarter

Hourly Weather History & Observations

Time (CEST) Temp. Dew Point Humidity Pressure Visibility Wind Dir Wind Speed Gust Speed Precip Events Conditions
12:00 AM 52 °F 51 °F 95% 29.98 in 2 mi SSE 4.5 mph - - Rain Light Rain
1:00 AM 52 °F 52 °F 99% 29.98 in 3 mi SSW 4.5 mph - - Rain Light Drizzle
2:00 AM 53 °F 52 °F 95% 29.99 in 5 mi SSW 8.9 mph - - Rain Light Drizzle
3:00 AM 52 °F 52 °F 99% 30.03 in 5 mi SW 4.5 mph - - Rain Drizzle
4:00 AM 52 °F 51 °F 95% 30.05 in 8 mi South 6.7 mph - -  
5:00 AM 52 °F 51 °F 95% 30.07 in 5 mi South 4.5 mph - -   Clear
7:00 AM 52 °F 50 °F 89% 30.10 in 31 mi SSW 6.7 mph - -   Mostly Cloudy
7:50 AM 50.0 °F 50.0 °F 100% 30.09 in 6.2 mi South 5.8 mph - N/A   Partly Cloudy
8:00 AM 51 °F 49 °F 92% 30.11 in 28 mi South 6.7 mph - -   Partly Cloudy
8:20 AM 50.0 °F 50.0 °F 100% 30.09 in 6.2 mi South 8.1 mph - N/A   Partly Cloudy
8:50 AM 51.8 °F 51.8 °F 100% 30.12 in 6.2 mi SSW 6.9 mph - N/A   Scattered Clouds
9:00 AM 52 °F 51 °F 93% 30.13 in 22 mi SSW 8.9 mph - -   Mostly Cloudy
9:20 AM 53.6 °F 53.6 °F 100% 30.12 in 6.2 mi South 6.9 mph - N/A   Mostly Cloudy
9:50 AM 53.6 °F 51.8 °F 94% 30.12 in 6.2 mi SSW 9.2 mph - N/A   Mostly Cloudy
10:00 AM 54 °F 51 °F 86% 30.14 in 28 mi SSW 6.7 mph - -   Mostly Cloudy
10:20 AM 53.6 °F 51.8 °F 94% 30.12 in 6.2 mi SSW 6.9 mph - N/A   Mostly Cloudy
10:50 AM 55.4 °F 51.8 °F 88% 30.12 in 6.2 mi South 9.2 mph - N/A   Mostly Cloudy
11:00 AM 56 °F 51 °F 79% 30.14 in 34 mi South 8.9 mph - -   Mostly Cloudy
11:20 AM 55.4 °F 51.8 °F 88% 30.12 in 6.2 mi South 8.1 mph - N/A   Mostly Cloudy
11:50 AM 59.0 °F 51.8 °F 77% 30.12 in 6.2 mi South 8.1 mph - N/A   Mostly Cloudy
12:00 PM 59 °F 52 °F 72% 30.13 in 34 mi SSW 8.9 mph - -   Mostly Cloudy
12:20 PM 59.0 °F 51.8 °F 77% 30.12 in 6.2 mi SSW 6.9 mph - N/A   Mostly Cloudy
12:50 PM 60.8 °F 51.8 °F 72% 30.12 in 6.2 mi SSW 8.1 mph - N/A   Mostly Cloudy
1:00 PM 60 °F 52 °F 67% 30.13 in 34 mi SSW 8.9 mph - -   Mostly Cloudy
1:20 PM 60.8 °F 50.0 °F 68% 30.12 in 6.2 mi SSW 10.4 mph - N/A   Mostly Cloudy
1:50 PM 62.6 °F 51.8 °F 68% 30.09 in 6.2 mi SSW 10.4 mph - N/A   Mostly Cloudy
2:00 PM 63 °F 51 °F 56% 30.11 in 40 mi SW 11.2 mph - -   Mostly Cloudy
2:20 PM 60.8 °F 50.0 °F 68% 30.09 in 6.2 mi WSW 13.8 mph - N/A   Mostly Cloudy
2:50 PM 62.6 °F 48.2 °F 59% 30.09 in 6.2 mi SW 12.7 mph - N/A   Mostly Cloudy
3:00 PM 63 °F 49 °F 51% 30.10 in 40 mi WSW 13.4 mph - -   Mostly Cloudy
3:20 PM 62.6 °F 48.2 °F 59% 30.09 in 6.2 mi SW 12.7 mph - N/A   Mostly Cloudy
3:50 PM 62.6 °F 50.0 °F 63% 30.09 in 6.2 mi SW 11.5 mph - N/A   Scattered Clouds
4:00 PM 63 °F 50 °F 52% 30.09 in 40 mi SW 11.2 mph - -   Mostly Cloudy
4:20 PM 60.8 °F 48.2 °F 63% 30.09 in 6.2 mi SW 10.4 mph - N/A   Scattered Clouds
5:00 PM 62 °F 49 °F 53% 30.08 in 40 mi WSW 6.7 mph - -   Mostly Cloudy
6:00 PM 60 °F 49 °F 58% 30.09 in 40 mi West 6.7 mph - -   Partly Cloudy
7:00 PM 59 °F 51 °F 67% 30.10 in 40 mi West 6.7 mph - -   Partly Cloudy
8:00 PM 56 °F 49 °F 71% 30.12 in 40 mi West 4.5 mph - -   Partly Cloudy
9:00 PM 54 °F 48 °F 75% 30.11 in 37 mi SSW 6.7 mph - -   Clear
10:00 PM 52 °F 48 °F 82% 30.12 in 19 mi South 4.5 mph - -  
11:00 PM 52 °F 49 °F 85% 30.12 in 19 mi South 6.7 mph - -